Location: Unspecified
(40.7945°N, 0.0000°E)
Time: 02:47:21
(UTC+00:00)

Altair - Pass Details

Date: 21 January 2021
Orbit: 1501 x 1682 km, 47.2° (Epoch: 01 March)

Event Time Altitude Azimuth Distance (km) Brightness Sun altitude
Rises 06:12:13 0° 239° (WSW) 4,869 9.7 -12.6°
Reaches altitude 10° 06:15:19 10° 239° (WSW) 3,901 9.2 -12.1°
Maximum altitude 06:25:26 89° 152° (SSE) 1,684 7.7 -10.3°
Drops below altitude 10° 06:35:39 10° 64° (ENE) 3,942 10.3 -8.4°
Sets 06:38:49 0° 64° (ENE) 4,922 10.9 -7.8°
